Time,TemperatureF,DewpointF,PressureIn,WindDirection,WindDirectionDegrees,WindSpeedMPH,WindSpeedGustMPH,Humidity,HourlyPrecipIn,Conditions,Clouds,dailyrainin,SolarRadiationWatts/m^2,SoftwareType,DateUTC
2013-03-27 00:02:00,56.5,18.1,29.99,SSW,200,0.0,1.0,22,0.00,,,0.00,0.0,meteohub,2013-03-27 07:02:00,
2013-03-27 00:07:00,56.1,17.8,29.99,SSW,200,0.0,1.0,22,0.00,,,0.00,0.0,meteohub,2013-03-27 07:07:00,
2013-03-27 00:12:00,55.9,17.6,29.99,SSW,200,1.0,1.0,22,0.00,,,0.00,0.0,meteohub,2013-03-27 07:12:00,
2013-03-27 00:17:00,55.8,18.5,29.99,SSW,200,1.0,1.0,23,0.00,,,0.00,0.0,meteohub,2013-03-27 07:17:00,
2013-03-27 00:22:00,55.8,18.5,29.98,SSW,200,1.0,2.0,23,0.00,,,0.00,0.0,meteohub,2013-03-27 07:22:00,
2013-03-27 00:27:00,55.9,18.7,29.98,SSW,200,1.0,2.0,23,0.00,,,0.00,0.0,meteohub,2013-03-27 07:27:00,
2013-03-27 00:32:00,56.3,19.0,29.98,SSW,200,0.0,2.0,23,0.00,,,0.00,0.0,meteohub,2013-03-27 07:32:00,
2013-03-27 00:37:00,56.7,18.3,29.98,SSW,200,0.0,2.0,22,0.00,,,0.00,0.0,meteohub,2013-03-27 07:37:00,
2013-03-27 00:42:00,56.8,18.3,29.98,SSW,200,0.0,2.0,22,0.00,,,0.00,0.0,meteohub,2013-03-27 07:42:00,
2013-03-27 00:47:00,57.0,18.5,29.98,SSW,200,1.0,2.0,22,0.00,,,0.00,0.0,meteohub,2013-03-27 07:47:00,
2013-03-27 00:52:00,57.6,19.0,29.98,SSW,200,1.0,2.0,22,0.00,,,0.00,0.0,meteohub,2013-03-27 07:52:00,
2013-03-27 00:57:00,57.4,18.9,29.98,SSW,200,0.0,2.0,22,0.00,,,0.00,0.0,meteohub,2013-03-27 07:57:00,
2013-03-27 01:02:00,57.0,18.5,29.98,SSW,200,1.0,2.0,22,0.00,,,0.00,0.0,meteohub,2013-03-27 08:02:00,
2013-03-27 01:07:00,56.7,18.3,29.97,SSW,200,1.0,2.0,22,0.00,,,0.00,0.0,meteohub,2013-03-27 08:07:00,
2013-03-27 01:12:00,56.5,19.0,29.97,SSW,200,0.0,2.0,23,0.00,,,0.00,0.0,meteohub,2013-03-27 08:12:00,
2013-03-27 01:18:00,55.8,19.6,29.97,SSW,200,1.0,2.0,24,0.00,,,0.00,0.0,meteohub,2013-03-27 08:18:00,
2013-03-27 01:23:00,55.9,19.6,29.97,SSW,200,1.0,2.0,24,0.00,,,0.00,0.0,meteohub,2013-03-27 08:23:00,
2013-03-27 01:28:00,56.7,19.2,29.97,SSW,200,0.0,2.0,23,0.00,,,0.00,0.0,meteohub,2013-03-27 08:28:00,
2013-03-27 01:33:00,57.0,18.5,29.97,SSW,200,1.0,2.0,22,0.00,,,0.00,0.0,meteohub,2013-03-27 08:33:00,
2013-03-27 01:38:00,57.4,19.9,29.96,SSW,200,1.0,2.0,23,0.00,,,0.00,0.0,meteohub,2013-03-27 08:38:00,
2013-03-27 01:43:00,57.0,18.5,29.96,SSW,200,1.0,2.0,22,0.00,,,0.00,0.0,meteohub,2013-03-27 08:43:00,
2013-03-27 01:48:00,56.8,18.3,29.96,SSW,200,1.0,2.0,22,0.00,,,0.00,0.0,meteohub,2013-03-27 08:48:00,
2013-03-27 01:53:00,56.7,19.2,29.96,SSW,200,0.0,2.0,23,0.00,,,0.00,0.0,meteohub,2013-03-27 08:53:00,
2013-03-27 01:58:00,56.7,19.2,29.96,SSW,200,0.0,2.0,23,0.00,,,0.00,0.0,meteohub,2013-03-27 08:58:00,
2013-03-27 02:03:00,56.5,19.0,29.96,SSW,200,1.0,2.0,23,0.00,,,0.00,0.0,meteohub,2013-03-27 09:03:00,
2013-03-27 02:08:00,55.9,18.7,29.96,SSW,200,1.0,2.0,23,0.00,,,0.00,0.0,meteohub,2013-03-27 09:08:00,
2013-03-27 02:13:00,55.8,18.5,29.95,SSW,200,1.0,2.0,23,0.00,,,0.00,0.0,meteohub,2013-03-27 09:13:00,
2013-03-27 02:18:00,56.1,17.8,29.96,SSW,200,1.0,2.0,22,0.00,,,0.00,0.0,meteohub,2013-03-27 09:18:00,
2013-03-27 02:23:00,57.2,17.6,29.95,SSW,200,0.0,2.0,21,0.00,,,0.00,0.0,meteohub,2013-03-27 09:23:00,
2013-03-27 02:28:00,57.9,18.1,29.95,SSW,200,1.0,2.0,21,0.00,,,0.00,0.0,meteohub,2013-03-27 09:28:00,
2013-03-27 02:33:00,57.9,18.1,29.95,SSW,200,0.0,2.0,21,0.00,,,0.00,0.0,meteohub,2013-03-27 09:33:00,
2013-03-27 02:38:00,58.6,17.6,29.95,SSW,200,1.0,2.0,20,0.00,,,0.00,0.0,meteohub,2013-03-27 09:38:00,
2013-03-27 02:43:00,59.0,18.0,29.95,SSW,200,1.0,2.0,20,0.00,,,0.00,0.0,meteohub,2013-03-27 09:43:00,
2013-03-27 02:48:00,59.4,17.1,29.94,WNW,285,1.0,2.0,19,0.00,,,0.00,0.0,meteohub,2013-03-27 09:48:00,
2013-03-27 02:53:00,59.7,17.4,29.94,WNW,288,1.0,3.0,19,0.00,,,0.00,0.0,meteohub,2013-03-27 09:53:00,
2013-03-27 02:58:00,60.3,16.5,29.94,WNW,288,2.0,3.0,18,0.00,,,0.00,0.0,meteohub,2013-03-27 09:58:00,
2013-03-27 03:03:00,60.4,16.7,29.94,WNW,288,1.0,3.0,18,0.00,,,0.00,0.0,meteohub,2013-03-27 10:03:00,
2013-03-27 03:08:00,60.6,16.9,29.95,WNW,288,0.0,3.0,18,0.00,,,0.00,0.0,meteohub,2013-03-27 10:08:00,
2013-03-27 03:13:00,60.6,16.9,29.94,WNW,288,0.0,2.0,18,0.00,,,0.00,0.0,meteohub,2013-03-27 10:13:00,
2013-03-27 03:18:00,60.1,17.6,29.94,WNW,288,1.0,2.0,19,0.00,,,0.00,0.0,meteohub,2013-03-27 10:18:00,
2013-03-27 03:23:00,59.2,16.9,29.94,SSW,207,2.0,2.0,19,0.00,,,0.00,0.0,meteohub,2013-03-27 10:23:00,
2013-03-27 03:28:00,59.0,18.0,29.95,SSW,207,0.0,3.0,20,0.00,,,0.00,0.0,meteohub,2013-03-27 10:28:00,
2013-03-27 03:33:00,58.3,17.4,29.95,SSW,207,1.0,3.0,20,0.00,,,0.00,0.0,meteohub,2013-03-27 10:33:00,
2013-03-27 03:38:00,57.7,18.1,29.95,SSW,207,0.0,3.0,21,0.00,,,0.00,0.0,meteohub,2013-03-27 10:38:00,
2013-03-27 03:43:00,56.8,18.3,29.95,SSW,207,0.0,2.0,22,0.00,,,0.00,0.0,meteohub,2013-03-27 10:43:00,
2013-03-27 03:48:00,56.1,18.9,29.95,SSW,207,0.0,2.0,23,0.00,,,0.00,0.0,meteohub,2013-03-27 10:48:00,
2013-03-27 03:53:00,55.4,19.2,29.95,SSW,207,0.0,2.0,24,0.00,,,0.00,0.0,meteohub,2013-03-27 10:53:00,
2013-03-27 03:58:00,54.5,19.4,29.95,SSW,207,1.0,1.0,25,0.00,,,0.00,0.0,meteohub,2013-03-27 10:58:00,
2013-03-27 04:03:00,54.0,18.9,29.95,SSW,207,1.0,1.0,25,0.00,,,0.00,0.0,meteohub,2013-03-27 11:03:00,
2013-03-27 04:08:00,53.4,19.4,29.95,SSW,207,0.0,1.0,26,0.00,,,0.00,0.0,meteohub,2013-03-27 11:08:00,
2013-03-27 04:13:00,52.9,18.9,29.95,SSW,207,0.0,2.0,26,0.00,,,0.00,0.0,meteohub,2013-03-27 11:13:00,
2013-03-27 04:19:00,52.3,19.4,29.95,SSW,207,1.0,2.0,27,0.00,,,0.00,0.0,meteohub,2013-03-27 11:19:00,
2013-03-27 04:24:00,52.0,19.0,29.95,SSW,207,0.0,2.0,27,0.00,,,0.00,0.0,meteohub,2013-03-27 11:24:00,
2013-03-27 04:29:00,51.4,18.5,29.95,SSW,207,0.0,2.0,27,0.00,,,0.00,0.0,meteohub,2013-03-27 11:29:00,
2013-03-27 04:34:00,51.4,18.5,29.95,SSW,207,0.0,2.0,27,0.00,,,0.00,0.0,meteohub,2013-03-27 11:34:00,
2013-03-27 04:39:00,51.4,18.5,29.95,SSW,207,0.0,2.0,27,0.00,,,0.00,0.0,meteohub,2013-03-27 11:39:00,
2013-03-27 04:44:00,51.4,20.3,29.95,SSW,207,0.0,1.0,29,0.00,,,0.00,0.0,meteohub,2013-03-27 11:44:00,
2013-03-27 04:49:00,51.1,18.3,29.95,SSW,207,0.0,1.0,27,0.00,,,0.00,0.0,meteohub,2013-03-27 11:49:00,
2013-03-27 04:54:00,51.3,18.3,29.95,SSW,207,0.0,2.0,27,0.00,,,0.00,0.0,meteohub,2013-03-27 11:54:00,
2013-03-27 04:59:00,51.3,18.3,29.95,SSW,207,1.0,2.0,27,0.00,,,0.00,0.0,meteohub,2013-03-27 11:59:00,
2013-03-27 05:04:00,51.1,18.3,29.95,SSW,207,1.0,2.0,27,0.00,,,0.00,0.0,meteohub,2013-03-27 12:04:00,
2013-03-27 05:09:00,51.3,19.2,29.95,SSW,207,0.0,2.0,28,0.00,,,0.00,0.0,meteohub,2013-03-27 12:09:00,
2013-03-27 05:14:00,51.4,18.5,29.95,SSW,207,1.0,2.0,27,0.00,,,0.00,0.0,meteohub,2013-03-27 12:14:00,
2013-03-27 05:19:00,51.6,18.7,29.95,SSW,207,1.0,2.0,27,0.00,,,0.00,0.0,meteohub,2013-03-27 12:19:00,
2013-03-27 05:24:00,51.8,18.9,29.96,SSW,207,0.0,2.0,27,0.00,,,0.00,0.0,meteohub,2013-03-27 12:24:00,
2013-03-27 05:29:00,52.0,18.1,29.96,SSW,207,1.0,2.0,26,0.00,,,0.00,0.0,meteohub,2013-03-27 12:29:00,
2013-03-27 05:34:00,52.0,19.0,29.96,SSW,207,1.0,2.0,27,0.00,,,0.00,0.0,meteohub,2013-03-27 12:34:00,
2013-03-27 05:39:00,51.6,18.7,29.96,SSW,207,1.0,2.0,27,0.00,,,0.00,0.0,meteohub,2013-03-27 12:39:00,
2013-03-27 05:44:00,51.3,20.1,29.96,SSW,207,0.0,2.0,29,0.00,,,0.00,0.0,meteohub,2013-03-27 12:44:00,
2013-03-27 05:49:00,50.7,19.6,29.96,SSW,207,1.0,2.0,29,0.00,,,0.00,0.0,meteohub,2013-03-27 12:49:00,
2013-03-27 05:54:00,50.5,19.4,29.97,SSW,207,1.0,2.0,29,0.00,,,0.00,0.0,meteohub,2013-03-27 12:54:00,
2013-03-27 05:59:00,50.5,19.4,29.97,SSW,207,0.0,2.0,29,0.00,,,0.00,0.0,meteohub,2013-03-27 12:59:00,
2013-03-27 06:04:00,50.7,19.6,29.97,SSW,207,0.0,2.0,29,0.00,,,0.00,0.0,meteohub,2013-03-27 13:04:00,
2013-03-27 06:09:00,50.5,20.3,29.97,SSW,207,0.0,1.0,30,0.00,,,0.00,0.0,meteohub,2013-03-27 13:09:00,
2013-03-27 06:14:00,50.4,20.1,29.97,SSW,207,1.0,1.0,30,0.00,,,0.00,0.0,meteohub,2013-03-27 13:14:00,
2013-03-27 06:19:00,49.8,19.6,29.97,SSW,207,0.0,1.0,30,0.00,,,0.00,5.0,meteohub,2013-03-27 13:19:00,
2013-03-27 06:24:00,49.3,19.9,29.97,SSW,207,1.0,1.0,31,0.00,,,0.00,11.0,meteohub,2013-03-27 13:24:00,
2013-03-27 06:29:00,48.7,20.8,29.98,SSW,207,1.0,1.0,33,0.00,,,0.00,19.0,meteohub,2013-03-27 13:29:00,
2013-03-27 06:34:00,48.6,19.9,29.98,SSW,207,0.0,1.0,32,0.00,,,0.00,28.0,meteohub,2013-03-27 13:34:00,
2013-03-27 06:39:00,48.4,20.7,29.98,SSW,207,0.0,1.0,33,0.00,,,0.00,33.0,meteohub,2013-03-27 13:39:00,
2013-03-27 06:44:00,48.6,19.9,29.98,SSW,207,1.0,1.0,32,0.00,,,0.00,44.0,meteohub,2013-03-27 13:44:00,
2013-03-27 06:49:00,48.9,21.0,29.98,SSW,207,0.0,1.0,33,0.00,,,0.00,54.0,meteohub,2013-03-27 13:49:00,
2013-03-27 06:54:00,49.5,21.6,29.99,SSW,207,0.0,1.0,33,0.00,,,0.00,69.0,meteohub,2013-03-27 13:54:00,
2013-03-27 06:59:00,50.2,21.4,29.99,SSW,207,0.0,1.0,32,0.00,,,0.00,81.0,meteohub,2013-03-27 13:59:00,
2013-03-27 07:04:00,51.3,21.6,29.99,SSW,207,0.0,1.0,31,0.00,,,0.00,84.0,meteohub,2013-03-27 14:04:00,
2013-03-27 07:09:00,52.2,22.5,29.99,SSW,207,1.0,2.0,31,0.00,,,0.00,86.0,meteohub,2013-03-27 14:09:00,
2013-03-27 07:14:00,53.1,21.6,29.99,SSW,207,0.0,2.0,29,0.00,,,0.00,95.0,meteohub,2013-03-27 14:14:00,
2013-03-27 07:19:00,54.0,20.7,30.00,SSW,207,1.0,2.0,27,0.00,,,0.00,130.0,meteohub,2013-03-27 14:19:00,
2013-03-27 07:24:00,55.0,21.7,30.00,SSW,207,0.0,2.0,27,0.00,,,0.00,167.0,meteohub,2013-03-27 14:24:00,
2013-03-27 07:29:00,56.3,20.8,30.00,West,272,2.0,2.0,25,0.00,,,0.00,167.0,meteohub,2013-03-27 14:29:00,
2013-03-27 07:34:00,57.6,21.9,30.00,West,272,0.0,2.0,25,0.00,,,0.00,190.0,meteohub,2013-03-27 14:34:00,
2013-03-27 07:39:00,58.5,22.8,30.00,West,272,0.0,2.0,25,0.00,,,0.00,241.0,meteohub,2013-03-27 14:39:00,
2013-03-27 07:44:00,59.9,21.9,30.00,West,272,0.0,2.0,23,0.00,,,0.00,274.0,meteohub,2013-03-27 14:44:00,
2013-03-27 07:49:00,61.2,21.9,30.01,SW,218,3.0,3.0,22,0.00,,,0.00,299.0,meteohub,2013-03-27 14:49:00,
2013-03-27 07:54:00,62.2,23.0,30.01,SSW,211,0.0,2.0,22,0.00,,,0.00,315.0,meteohub,2013-03-27 14:54:00,
2013-03-27 08:00:00,63.1,22.6,30.01,SSW,211,0.0,3.0,21,0.00,,,0.00,329.0,meteohub,2013-03-27 15:00:00,
2013-03-27 08:05:00,64.0,21.0,30.01,SSW,211,0.0,3.0,19,0.00,,,0.00,339.0,meteohub,2013-03-27 15:05:00,
2013-03-27 08:10:00,65.3,20.7,30.01,SSW,211,0.0,3.0,18,0.00,,,0.00,383.0,meteohub,2013-03-27 15:10:00,
2013-03-27 08:15:00,66.4,18.9,30.01,West,269,1.0,2.0,16,0.00,,,0.00,309.0,meteohub,2013-03-27 15:15:00,
2013-03-27 08:20:00,66.9,17.8,30.01,West,270,0.0,2.0,15,0.00,,,0.00,350.0,meteohub,2013-03-27 15:20:00,
2013-03-27 08:25:00,67.8,18.5,30.01,West,270,0.0,2.0,15,0.00,,,0.00,357.0,meteohub,2013-03-27 15:25:00,
2013-03-27 08:30:00,68.5,17.4,30.01,West,270,1.0,2.0,14,0.00,,,0.00,434.0,meteohub,2013-03-27 15:30:00,
2013-03-27 08:35:00,69.3,16.3,30.01,West,270,1.0,2.0,13,0.00,,,0.00,429.0,meteohub,2013-03-27 15:35:00,
2013-03-27 08:40:00,70.3,17.2,30.01,West,270,2.0,2.0,13,0.00,,,0.00,492.0,meteohub,2013-03-27 15:40:00,
2013-03-27 08:45:00,70.9,15.8,30.01,West,275,2.0,2.0,12,0.00,,,0.00,452.0,meteohub,2013-03-27 15:45:00,
2013-03-27 08:50:00,71.4,16.2,30.01,West,275,2.0,3.0,12,0.00,,,0.00,415.0,meteohub,2013-03-27 15:50:00,
2013-03-27 08:55:00,71.8,16.5,30.01,West,263,1.0,3.0,12,0.00,,,0.00,457.0,meteohub,2013-03-27 15:55:00,
2013-03-27 09:00:00,72.3,16.9,30.02,West,264,0.0,3.0,12,0.00,,,0.00,468.0,meteohub,2013-03-27 16:00:00,
2013-03-27 09:05:00,73.0,17.4,30.02,West,263,0.0,3.0,12,0.00,,,0.00,524.0,meteohub,2013-03-27 16:05:00,
2013-03-27 09:10:00,73.6,17.8,30.02,West,264,0.0,3.0,12,0.00,,,0.00,571.0,meteohub,2013-03-27 16:10:00,
2013-03-27 09:15:00,73.9,16.2,30.02,WSW,257,2.0,3.0,11,0.00,,,0.00,508.0,meteohub,2013-03-27 16:15:00,
2013-03-27 09:20:00,73.9,18.1,30.02,West,263,2.0,3.0,12,0.00,,,0.00,626.0,meteohub,2013-03-27 16:20:00,
2013-03-27 09:25:00,74.1,16.2,30.02,West,276,1.0,4.0,11,0.00,,,0.00,592.0,meteohub,2013-03-27 16:25:00,
2013-03-27 09:30:00,74.7,16.7,30.02,West,276,0.0,4.0,11,0.00,,,0.00,629.0,meteohub,2013-03-27 16:30:00,
2013-03-27 09:35:00,75.4,15.1,30.02,WNW,284,2.0,4.0,10,0.00,,,0.00,679.0,meteohub,2013-03-27 16:35:00,
2013-03-27 09:40:00,75.9,15.4,30.02,WSW,240,1.0,3.0,10,0.00,,,0.00,689.0,meteohub,2013-03-27 16:40:00,
2013-03-27 09:45:00,76.3,15.6,30.02,West,259,2.0,5.0,10,0.00,,,0.00,679.0,meteohub,2013-03-27 16:45:00,
2013-03-27 09:50:00,76.5,15.8,30.02,South,180,2.0,5.0,10,0.00,,,0.00,664.0,meteohub,2013-03-27 16:50:00,
2013-03-27 09:55:00,76.5,15.8,30.02,SSW,211,2.0,5.0,10,0.00,,,0.00,629.0,meteohub,2013-03-27 16:55:00,
2013-03-27 10:00:00,76.5,18.0,30.02,WSW,241,2.0,5.0,11,0.00,,,0.00,724.0,meteohub,2013-03-27 17:00:00,
2013-03-27 10:05:00,76.5,15.8,30.02,WNW,300,3.0,5.0,10,0.00,,,0.00,768.0,meteohub,2013-03-27 17:05:00,
2013-03-27 10:10:00,76.6,16.0,30.02,WNW,285,2.0,5.0,10,0.00,,,0.00,752.0,meteohub,2013-03-27 17:10:00,
2013-03-27 10:15:00,77.0,18.5,30.02,WSW,252,1.0,5.0,11,0.00,,,0.00,758.0,meteohub,2013-03-27 17:15:00,
2013-03-27 10:20:00,77.7,16.9,30.02,SW,223,2.0,5.0,10,0.00,,,0.00,773.0,meteohub,2013-03-27 17:20:00,
2013-03-27 10:25:00,77.7,16.9,30.02,WSW,240,4.0,7.0,10,0.00,,,0.00,575.0,meteohub,2013-03-27 17:25:00,
2013-03-27 10:30:00,77.7,16.9,30.02,WSW,240,4.0,7.0,10,0.00,,,0.00,696.0,meteohub,2013-03-27 17:30:00,
2013-03-27 10:35:00,77.9,16.9,30.02,SSW,213,6.0,8.0,10,0.00,,,0.00,861.0,meteohub,2013-03-27 17:35:00,
2013-03-27 10:41:00,78.3,17.2,30.02,West,263,3.0,8.0,10,0.00,,,0.00,858.0,meteohub,2013-03-27 17:41:00,
2013-03-27 10:46:00,78.3,17.2,30.02,WSW,254,2.0,8.0,10,0.00,,,0.00,874.0,meteohub,2013-03-27 17:46:00,
2013-03-27 10:51:00,79.0,17.8,30.02,West,265,7.0,8.0,10,0.00,,,0.00,889.0,meteohub,2013-03-27 17:51:00,
2013-03-27 10:56:00,79.2,18.0,30.02,WNW,298,2.0,11.0,10,0.00,,,0.00,896.0,meteohub,2013-03-27 17:56:00,
2013-03-27 11:01:00,79.2,15.4,30.02,SW,232,3.0,11.0,9,0.00,,,0.00,867.0,meteohub,2013-03-27 18:01:00,
2013-03-27 11:06:00,78.4,17.4,30.02,WSW,247,3.0,11.0,10,0.00,,,0.00,577.0,meteohub,2013-03-27 18:06:00,
2013-03-27 11:11:00,78.4,17.4,30.02,WSW,243,3.0,9.0,10,0.00,,,0.00,933.0,meteohub,2013-03-27 18:11:00,
2013-03-27 11:16:00,79.2,18.0,30.02,West,261,4.0,9.0,10,0.00,,,0.00,962.0,meteohub,2013-03-27 18:16:00,
2013-03-27 11:21:00,79.5,18.1,30.02,SSW,196,2.0,9.0,10,0.00,,,0.00,940.0,meteohub,2013-03-27 18:21:00,
2013-03-27 11:26:00,79.9,16.0,30.02,SW,215,4.0,7.0,9,0.00,,,0.00,937.0,meteohub,2013-03-27 18:26:00,
2013-03-27 11:31:00,80.1,16.2,30.02,SW,231,2.0,7.0,9,0.00,,,0.00,937.0,meteohub,2013-03-27 18:31:00,
2013-03-27 11:36:00,80.1,16.2,30.02,WSW,248,2.0,7.0,9,0.00,,,0.00,939.0,meteohub,2013-03-27 18:36:00,
2013-03-27 11:41:00,80.8,14.0,30.02,WSW,237,2.0,11.0,8,0.00,,,0.00,970.0,meteohub,2013-03-27 18:41:00,
2013-03-27 11:46:00,80.8,14.0,30.02,West,267,6.0,11.0,8,0.00,,,0.00,986.0,meteohub,2013-03-27 18:46:00,
2013-03-27 11:51:00,81.0,14.2,30.02,SW,221,4.0,11.0,8,0.00,,,0.00,986.0,meteohub,2013-03-27 18:51:00,
2013-03-27 11:56:00,81.1,14.2,30.02,West,279,4.0,11.0,8,0.00,,,0.00,949.0,meteohub,2013-03-27 18:56:00,
2013-03-27 12:01:00,80.8,14.0,30.01,SW,216,2.0,11.0,8,0.00,,,0.00,981.0,meteohub,2013-03-27 19:01:00,
2013-03-27 12:07:00,80.8,14.0,30.01,South,190,8.0,10.0,8,0.00,,,0.00,940.0,meteohub,2013-03-27 19:07:00,
2013-03-27 12:12:00,81.3,14.4,30.01,West,271,3.0,11.0,8,0.00,,,0.00,984.0,meteohub,2013-03-27 19:12:00,
2013-03-27 12:17:00,81.7,14.7,30.01,South,184,1.0,11.0,8,0.00,,,0.00,912.0,meteohub,2013-03-27 19:17:00,
2013-03-27 12:22:00,81.3,14.4,30.00,WSW,239,3.0,11.0,8,0.00,,,0.00,986.0,meteohub,2013-03-27 19:22:00,
2013-03-27 12:27:00,81.1,14.2,30.00,West,275,1.0,8.0,8,0.00,,,0.00,911.0,meteohub,2013-03-27 19:27:00,
2013-03-27 12:32:00,81.7,14.7,30.00,SSW,210,2.0,8.0,8,0.00,,,0.00,937.0,meteohub,2013-03-27 19:32:00,
2013-03-27 12:37:00,82.0,14.9,30.00,SSW,209,5.0,6.0,8,0.00,,,0.00,686.0,meteohub,2013-03-27 19:37:00,
2013-03-27 12:42:00,82.6,12.2,29.99,SW,223,6.0,8.0,7,0.00,,,0.00,780.0,meteohub,2013-03-27 19:42:00,
2013-03-27 12:47:00,82.8,12.4,29.99,SW,217,6.0,10.0,7,0.00,,,0.00,1099.0,meteohub,2013-03-27 19:47:00,
2013-03-27 12:52:00,82.8,12.4,29.99,SW,217,5.0,10.0,7,0.00,,,0.00,700.0,meteohub,2013-03-27 19:52:00,
2013-03-27 12:57:00,82.8,12.4,29.99,SW,228,5.0,11.0,7,0.00,,,0.00,960.0,meteohub,2013-03-27 19:57:00,
2013-03-27 13:02:00,82.6,12.2,29.99,West,264,2.0,11.0,7,0.00,,,0.00,972.0,meteohub,2013-03-27 20:02:00,
2013-03-27 13:07:00,82.9,15.6,29.99,West,272,3.0,11.0,8,0.00,,,0.00,967.0,meteohub,2013-03-27 20:07:00,
2013-03-27 13:12:00,83.7,16.2,29.98,WSW,246,3.0,8.0,8,0.00,,,0.00,969.0,meteohub,2013-03-27 20:12:00,
2013-03-27 13:17:00,84.0,13.3,29.98,SSW,197,2.0,9.0,7,0.00,,,0.00,958.0,meteohub,2013-03-27 20:17:00,
2013-03-27 13:22:00,83.8,13.3,29.98,SSE,161,5.0,9.0,7,0.00,,,0.00,954.0,meteohub,2013-03-27 20:22:00,
2013-03-27 13:27:00,83.8,16.3,29.97,SW,232,3.0,11.0,8,0.00,,,0.00,940.0,meteohub,2013-03-27 20:27:00,
2013-03-27 13:32:00,84.6,13.6,29.97,West,260,1.0,11.0,7,0.00,,,0.00,925.0,meteohub,2013-03-27 20:32:00,
2013-03-27 13:37:00,84.6,16.9,29.97,SSW,212,4.0,11.0,8,0.00,,,0.00,916.0,meteohub,2013-03-27 20:37:00,
2013-03-27 13:42:00,84.4,13.6,29.97,ENE,73,5.0,13.0,7,0.00,,,0.00,935.0,meteohub,2013-03-27 20:42:00,
2013-03-27 13:47:00,84.4,16.7,29.97,SW,221,4.0,13.0,8,0.00,,,0.00,888.0,meteohub,2013-03-27 20:47:00,
2013-03-27 13:52:00,84.9,14.0,29.96,WNW,285,5.0,13.0,7,0.00,,,0.00,958.0,meteohub,2013-03-27 20:52:00,
2013-03-27 13:57:00,85.3,14.2,29.96,South,188,2.0,10.0,7,0.00,,,0.00,884.0,meteohub,2013-03-27 20:57:00,
2013-03-27 14:02:00,85.3,10.8,29.96,SSW,200,6.0,10.0,6,0.00,,,0.00,988.0,meteohub,2013-03-27 21:02:00,
2013-03-27 14:07:00,85.1,14.2,29.96,South,186,4.0,13.0,7,0.00,,,0.00,944.0,meteohub,2013-03-27 21:07:00,
2013-03-27 14:12:00,85.3,14.2,29.96,SSW,203,8.0,14.0,7,0.00,,,0.00,717.0,meteohub,2013-03-27 21:12:00,
2013-03-27 14:17:00,85.3,14.2,29.96,South,187,3.0,14.0,7,0.00,,,0.00,566.0,meteohub,2013-03-27 21:17:00,
2013-03-27 14:22:00,84.7,13.8,29.96,South,185,6.0,16.0,7,0.00,,,0.00,473.0,meteohub,2013-03-27 21:22:00,
2013-03-27 14:27:00,84.0,13.3,29.96,WSW,254,4.0,16.0,7,0.00,,,0.00,603.0,meteohub,2013-03-27 21:27:00,
2013-03-27 14:32:00,84.4,16.7,29.95,WSW,258,8.0,11.0,8,0.00,,,0.00,673.0,meteohub,2013-03-27 21:32:00,
2013-03-27 14:37:00,84.2,13.5,29.96,South,188,7.0,12.0,7,0.00,,,0.00,464.0,meteohub,2013-03-27 21:37:00,
2013-03-27 14:42:00,83.8,16.3,29.96,SSW,199,5.0,16.0,8,0.00,,,0.00,531.0,meteohub,2013-03-27 21:42:00,
2013-03-27 14:47:00,83.7,16.2,29.95,South,188,3.0,16.0,8,0.00,,,0.00,584.0,meteohub,2013-03-27 21:47:00,
2013-03-27 14:52:00,83.7,18.9,29.95,SSW,195,6.0,11.0,9,0.00,,,0.00,561.0,meteohub,2013-03-27 21:52:00,
2013-03-27 14:57:00,84.0,16.3,29.95,SSW,196,7.0,11.0,8,0.00,,,0.00,513.0,meteohub,2013-03-27 21:57:00,
2013-03-27 15:02:00,83.8,16.3,29.95,West,263,4.0,11.0,8,0.00,,,0.00,457.0,meteohub,2013-03-27 22:02:00,
2013-03-27 15:07:00,83.8,16.3,29.95,SW,217,7.0,11.0,8,0.00,,,0.00,512.0,meteohub,2013-03-27 22:07:00,
2013-03-27 15:12:00,83.5,16.0,29.95,WSW,249,5.0,13.0,8,0.00,,,0.00,483.0,meteohub,2013-03-27 22:12:00,
2013-03-27 15:17:00,82.9,15.6,29.95,WNW,301,11.0,15.0,8,0.00,,,0.00,487.0,meteohub,2013-03-27 22:17:00,
2013-03-27 15:22:00,83.3,15.8,29.94,West,275,6.0,15.0,8,0.00,,,0.00,566.0,meteohub,2013-03-27 22:22:00,
2013-03-27 15:27:00,83.1,15.8,29.94,WSW,238,11.0,15.0,8,0.00,,,0.00,383.0,meteohub,2013-03-27 22:27:00,
2013-03-27 15:32:00,82.8,15.4,29.94,SW,228,4.0,12.0,8,0.00,,,0.00,404.0,meteohub,2013-03-27 22:32:00,
2013-03-27 15:37:00,82.8,15.4,29.94,NW,309,3.0,14.0,8,0.00,,,0.00,578.0,meteohub,2013-03-27 22:37:00,
2013-03-27 15:43:00,83.5,18.7,29.94,WSW,242,4.0,14.0,9,0.00,,,0.00,606.0,meteohub,2013-03-27 22:43:00,
2013-03-27 15:48:00,83.8,21.4,29.94,West,261,8.0,14.0,10,0.00,,,0.00,642.0,meteohub,2013-03-27 22:48:00,
2013-03-27 15:53:00,83.7,21.4,29.94,South,184,7.0,15.0,10,0.00,,,0.00,388.0,meteohub,2013-03-27 22:53:00,
2013-03-27 15:58:00,83.1,20.8,29.94,WSW,257,7.0,15.0,10,0.00,,,0.00,322.0,meteohub,2013-03-27 22:58:00,
2013-03-27 16:03:00,82.2,20.3,29.94,WNW,284,3.0,15.0,10,0.00,,,0.00,323.0,meteohub,2013-03-27 23:03:00,
2013-03-27 16:08:00,82.0,22.3,29.94,West,259,5.0,13.0,11,0.00,,,0.00,239.0,meteohub,2013-03-27 23:08:00,
2013-03-27 16:13:00,81.5,21.9,29.94,WSW,249,2.0,11.0,11,0.00,,,0.00,207.0,meteohub,2013-03-27 23:13:00,
2013-03-27 16:18:00,81.3,21.7,29.94,SW,228,8.0,14.0,11,0.00,,,0.00,185.0,meteohub,2013-03-27 23:18:00,
2013-03-27 16:23:00,81.0,21.6,29.94,WSW,255,6.0,14.0,11,0.00,,,0.00,174.0,meteohub,2013-03-27 23:23:00,
2013-03-27 16:28:00,80.4,21.0,29.94,SW,232,5.0,12.0,11,0.00,,,0.00,167.0,meteohub,2013-03-27 23:28:00,
2013-03-27 16:33:00,80.6,23.4,29.94,West,264,4.0,12.0,12,0.00,,,0.00,220.0,meteohub,2013-03-27 23:33:00,
2013-03-27 16:38:00,80.8,21.4,29.94,WSW,254,8.0,11.0,11,0.00,,,0.00,227.0,meteohub,2013-03-27 23:38:00,
2013-03-27 16:43:00,80.8,21.4,29.94,WSW,254,8.0,12.0,11,0.00,,,0.00,241.0,meteohub,2013-03-27 23:43:00,
2013-03-27 16:48:00,80.6,21.2,29.94,SW,223,3.0,12.0,11,0.00,,,0.00,195.0,meteohub,2013-03-27 23:48:00,
2013-03-27 16:53:00,80.4,21.0,29.94,West,261,4.0,12.0,11,0.00,,,0.00,160.0,meteohub,2013-03-27 23:53:00,
2013-03-27 16:58:00,80.2,21.0,29.94,West,270,6.0,11.0,11,0.00,,,0.00,128.0,meteohub,2013-03-27 23:58:00,
2013-03-27 17:03:00,80.1,20.8,29.94,West,279,5.0,12.0,11,0.00,,,0.00,128.0,meteohub,2013-03-28 00:03:00,
2013-03-27 17:08:00,79.7,22.6,29.94,West,266,6.0,12.0,12,0.00,,,0.00,149.0,meteohub,2013-03-28 00:08:00,
2013-03-27 17:13:00,79.5,22.5,29.94,West,277,3.0,12.0,12,0.00,,,0.00,158.0,meteohub,2013-03-28 00:13:00,
2013-03-27 17:18:00,79.9,22.8,29.94,WSW,238,4.0,10.0,12,0.00,,,0.00,153.0,meteohub,2013-03-28 00:18:00,
2013-03-27 17:23:00,79.9,22.8,29.94,West,269,7.0,10.0,12,0.00,,,0.00,149.0,meteohub,2013-03-28 00:23:00,
2013-03-27 17:28:00,79.9,22.8,29.94,West,263,7.0,11.0,12,0.00,,,0.00,134.0,meteohub,2013-03-28 00:28:00,
2013-03-27 17:33:00,79.9,20.7,29.94,West,263,6.0,12.0,11,0.00,,,0.00,139.0,meteohub,2013-03-28 00:33:00,
2013-03-27 17:38:00,80.1,20.8,29.94,West,269,10.0,13.0,11,0.00,,,0.00,229.0,meteohub,2013-03-28 00:38:00,
2013-03-27 17:43:00,80.4,21.0,29.94,West,267,9.0,15.0,11,0.00,,,0.00,213.0,meteohub,2013-03-28 00:43:00,
2013-03-27 17:48:00,80.4,21.0,29.94,WSW,238,9.0,15.0,11,0.00,,,0.00,169.0,meteohub,2013-03-28 00:48:00,
2013-03-27 17:53:00,80.1,20.8,29.95,West,263,9.0,15.0,11,0.00,,,0.00,128.0,meteohub,2013-03-28 00:53:00,
2013-03-27 17:58:00,79.9,18.5,29.94,West,261,8.0,13.0,10,0.00,,,0.00,97.0,meteohub,2013-03-28 00:58:00,
2013-03-27 18:03:00,79.5,18.1,29.95,West,275,4.0,13.0,10,0.00,,,0.00,90.0,meteohub,2013-03-28 01:03:00,
2013-03-27 18:08:00,79.2,20.1,29.95,West,261,2.0,12.0,11,0.00,,,0.00,51.0,meteohub,2013-03-28 01:08:00,
2013-03-27 18:13:00,78.6,21.7,29.95,WSW,254,2.0,11.0,12,0.00,,,0.00,42.0,meteohub,2013-03-28 01:13:00,
2013-03-27 18:18:00,78.3,21.6,29.95,WSW,244,4.0,10.0,12,0.00,,,0.00,32.0,meteohub,2013-03-28 01:18:00,
2013-03-27 18:23:00,77.9,21.2,29.95,West,273,5.0,10.0,12,0.00,,,0.00,23.0,meteohub,2013-03-28 01:23:00,
2013-03-27 18:28:00,77.5,20.8,29.95,WSW,244,4.0,11.0,12,0.00,,,0.00,14.0,meteohub,2013-03-28 01:28:00,
2013-03-27 18:34:00,77.2,20.7,29.95,WSW,244,3.0,11.0,12,0.00,,,0.00,7.0,meteohub,2013-03-28 01:34:00,
2013-03-27 18:38:00,76.8,20.3,29.96,WSW,243,3.0,9.0,12,0.00,,,0.00,0.0,meteohub,2013-03-28 01:38:00,
2013-03-27 18:43:00,76.6,20.3,29.96,WSW,253,4.0,9.0,12,0.00,,,0.00,0.0,meteohub,2013-03-28 01:43:00,
2013-03-27 18:49:00,76.5,20.1,29.96,West,262,3.0,7.0,12,0.00,,,0.00,0.0,meteohub,2013-03-28 01:49:00,
2013-03-27 18:54:00,76.1,19.8,29.96,West,263,5.0,7.0,12,0.00,,,0.00,0.0,meteohub,2013-03-28 01:54:00,
2013-03-27 18:59:00,75.7,21.4,29.96,WSW,240,5.0,7.0,13,0.00,,,0.00,0.0,meteohub,2013-03-28 01:59:00,
2013-03-27 19:04:00,75.6,21.2,29.96,West,261,3.0,7.0,13,0.00,,,0.00,0.0,meteohub,2013-03-28 02:04:00,
2013-03-27 19:09:00,75.4,21.2,29.96,West,261,3.0,6.0,13,0.00,,,0.00,0.0,meteohub,2013-03-28 02:09:00,
2013-03-27 19:14:00,74.8,20.7,29.96,West,281,3.0,6.0,13,0.00,,,0.00,0.0,meteohub,2013-03-28 02:14:00,
2013-03-27 19:19:00,74.5,18.5,29.96,WNW,297,0.0,6.0,12,0.00,,,0.00,0.0,meteohub,2013-03-28 02:19:00,
2013-03-27 19:24:00,73.9,18.1,29.97,WNW,297,1.0,5.0,12,0.00,,,0.00,0.0,meteohub,2013-03-28 02:24:00,
2013-03-27 19:29:00,73.6,17.8,29.97,WNW,297,1.0,5.0,12,0.00,,,0.00,0.0,meteohub,2013-03-28 02:29:00,
2013-03-27 19:34:00,73.0,17.4,29.97,WNW,296,2.0,4.0,12,0.00,,,0.00,0.0,meteohub,2013-03-28 02:34:00,
2013-03-27 19:39:00,73.0,17.4,29.97,WNW,284,4.0,6.0,12,0.00,,,0.00,0.0,meteohub,2013-03-28 02:39:00,
2013-03-27 19:44:00,72.7,17.1,29.97,WNW,284,1.0,6.0,12,0.00,,,0.00,0.0,meteohub,2013-03-28 02:44:00,
2013-03-27 19:49:00,72.3,16.9,29.97,WSW,254,2.0,6.0,12,0.00,,,0.00,0.0,meteohub,2013-03-28 02:49:00,
2013-03-27 19:54:00,72.0,16.5,29.97,WSW,254,1.0,4.0,12,0.00,,,0.00,0.0,meteohub,2013-03-28 02:54:00,
2013-03-27 19:59:00,71.4,18.0,29.98,WSW,254,0.0,4.0,13,0.00,,,0.00,0.0,meteohub,2013-03-28 02:59:00,
2013-03-27 20:04:00,71.1,17.8,29.98,West,259,1.0,4.0,13,0.00,,,0.00,0.0,meteohub,2013-03-28 03:04:00,
2013-03-27 20:09:00,71.1,15.8,29.98,WNW,290,1.0,4.0,12,0.00,,,0.00,0.0,meteohub,2013-03-28 03:09:00,
2013-03-27 20:14:00,71.2,16.0,29.98,West,269,1.0,4.0,12,0.00,,,0.00,0.0,meteohub,2013-03-28 03:14:00,
2013-03-27 20:19:00,71.2,16.0,29.98,West,270,2.0,5.0,12,0.00,,,0.00,0.0,meteohub,2013-03-28 03:19:00,
2013-03-27 20:24:00,71.4,16.2,29.98,West,275,3.0,9.0,12,0.00,,,0.00,0.0,meteohub,2013-03-28 03:24:00,
2013-03-27 20:29:00,71.8,14.4,29.99,WNW,298,2.0,9.0,11,0.00,,,0.00,0.0,meteohub,2013-03-28 03:29:00,
2013-03-27 20:34:00,72.3,14.9,29.99,NW,309,1.0,9.0,11,0.00,,,0.00,0.0,meteohub,2013-03-28 03:34:00,
2013-03-27 20:39:00,72.0,14.5,29.99,WNW,287,1.0,7.0,11,0.00,,,0.00,0.0,meteohub,2013-03-28 03:39:00,
2013-03-27 20:44:00,71.4,12.0,29.99,NW,305,4.0,7.0,10,0.00,,,0.00,0.0,meteohub,2013-03-28 03:44:00,
2013-03-27 20:49:00,71.8,12.2,30.00,WNW,298,2.0,4.0,10,0.00,,,0.00,0.0,meteohub,2013-03-28 03:49:00,
2013-03-27 20:54:00,71.8,12.2,30.00,West,259,2.0,8.0,10,0.00,,,0.00,0.0,meteohub,2013-03-28 03:54:00,
2013-03-27 20:59:00,71.4,12.0,30.00,WNW,301,6.0,8.0,10,0.00,,,0.00,0.0,meteohub,2013-03-28 03:59:00,
2013-03-27 21:00:00,71.4,12.0,30.00,West,260,2.0,8.0,10,0.00,,,0.00,0.0,meteohub,2013-03-28 04:00:00,
2013-03-27 21:05:00,71.4,12.0,30.01,West,265,2.0,7.0,10,0.00,,,0.00,0.0,meteohub,2013-03-28 04:05:00,
2013-03-27 21:10:00,71.4,12.0,30.01,West,268,1.0,7.0,10,0.00,,,0.00,0.0,meteohub,2013-03-28 04:10:00,
2013-03-27 21:15:00,71.1,11.7,30.01,West,271,1.0,7.0,10,0.00,,,0.00,0.0,meteohub,2013-03-28 04:15:00,
2013-03-27 21:20:00,70.7,11.5,30.01,West,265,2.0,5.0,10,0.00,,,0.00,0.0,meteohub,2013-03-28 04:20:00,
2013-03-27 21:25:00,70.5,13.5,30.02,West,261,2.0,4.0,11,0.00,,,0.00,0.0,meteohub,2013-03-28 04:25:00,
2013-03-27 21:30:00,70.2,13.1,30.02,West,261,2.0,4.0,11,0.00,,,0.00,0.0,meteohub,2013-03-28 04:30:00,
2013-03-27 21:35:00,69.6,12.7,30.02,West,262,3.0,4.0,11,0.00,,,0.00,0.0,meteohub,2013-03-28 04:35:00,
2013-03-27 21:40:00,69.1,14.4,30.02,West,261,2.0,3.0,12,0.00,,,0.00,0.0,meteohub,2013-03-28 04:40:00,
2013-03-27 21:45:00,68.7,14.0,30.02,West,261,1.0,3.0,12,0.00,,,0.00,0.0,meteohub,2013-03-28 04:45:00,
2013-03-27 21:50:00,68.4,13.8,30.02,West,261,0.0,3.0,12,0.00,,,0.00,0.0,meteohub,2013-03-28 04:50:00,
2013-03-27 21:55:00,67.8,15.1,30.02,West,261,0.0,3.0,13,0.00,,,0.00,0.0,meteohub,2013-03-28 04:55:00,
2013-03-27 22:00:00,67.1,14.5,30.03,West,261,1.0,2.0,13,0.00,,,0.00,0.0,meteohub,2013-03-28 05:00:00,
2013-03-27 22:05:00,66.0,15.4,30.03,West,261,1.0,2.0,14,0.00,,,0.00,0.0,meteohub,2013-03-28 05:05:00,
2013-03-27 22:10:00,65.1,14.7,30.03,West,261,1.0,2.0,14,0.00,,,0.00,0.0,meteohub,2013-03-28 05:10:00,
2013-03-27 22:15:00,64.6,15.8,30.03,West,261,1.0,2.0,15,0.00,,,0.00,0.0,meteohub,2013-03-28 05:15:00,
2013-03-27 22:20:00,64.0,15.4,30.04,West,261,0.0,2.0,15,0.00,,,0.00,0.0,meteohub,2013-03-28 05:20:00,
2013-03-27 22:25:00,63.7,15.1,30.04,West,261,1.0,2.0,15,0.00,,,0.00,0.0,meteohub,2013-03-28 05:25:00,
2013-03-27 22:30:00,63.1,16.2,30.04,West,261,1.0,2.0,16,0.00,,,0.00,0.0,meteohub,2013-03-28 05:30:00,
2013-03-27 22:35:00,62.8,16.0,30.04,West,261,1.0,2.0,16,0.00,,,0.00,0.0,meteohub,2013-03-28 05:35:00,
2013-03-27 22:40:00,62.2,15.4,30.04,West,261,0.0,2.0,16,0.00,,,0.00,0.0,meteohub,2013-03-28 05:40:00,
2013-03-27 22:45:00,61.9,16.5,30.04,West,261,0.0,2.0,17,0.00,,,0.00,0.0,meteohub,2013-03-28 05:45:00,
2013-03-27 22:51:00,61.2,17.2,30.04,West,261,0.0,2.0,18,0.00,,,0.00,0.0,meteohub,2013-03-28 05:51:00,
2013-03-27 22:56:00,60.6,16.9,30.04,West,261,0.0,1.0,18,0.00,,,0.00,0.0,meteohub,2013-03-28 05:56:00,
2013-03-27 23:01:00,60.1,16.3,30.04,West,261,1.0,1.0,18,0.00,,,0.00,0.0,meteohub,2013-03-28 06:01:00,
2013-03-27 23:06:00,59.5,17.2,30.04,West,261,0.0,2.0,19,0.00,,,0.00,0.0,meteohub,2013-03-28 06:06:00,
2013-03-27 23:11:00,59.5,16.0,30.04,West,261,0.0,2.0,18,0.00,,,0.00,0.0,meteohub,2013-03-28 06:11:00,
2013-03-27 23:16:00,59.2,16.9,30.05,West,261,0.0,1.0,19,0.00,,,0.00,0.0,meteohub,2013-03-28 06:16:00,
2013-03-27 23:21:00,58.6,16.5,30.05,West,261,1.0,1.0,19,0.00,,,0.00,0.0,meteohub,2013-03-28 06:21:00,
2013-03-27 23:26:00,58.1,17.2,30.05,West,261,0.0,1.0,20,0.00,,,0.00,0.0,meteohub,2013-03-28 06:26:00,
2013-03-27 23:31:00,57.4,16.7,30.05,West,261,0.0,1.0,20,0.00,,,0.00,0.0,meteohub,2013-03-28 06:31:00,
2013-03-27 23:36:00,56.7,16.0,30.05,West,261,1.0,1.0,20,0.00,,,0.00,0.0,meteohub,2013-03-28 06:36:00,
2013-03-27 23:41:00,56.3,15.8,30.06,West,261,1.0,1.0,20,0.00,,,0.00,0.0,meteohub,2013-03-28 06:41:00,
2013-03-27 23:47:00,56.7,16.0,30.06,West,261,0.0,2.0,20,0.00,,,0.00,0.0,meteohub,2013-03-28 06:47:00,
2013-03-27 23:52:00,57.0,16.3,30.06,West,261,0.0,2.0,20,0.00,,,0.00,0.0,meteohub,2013-03-28 06:52:00,
2013-03-27 23:57:00,57.4,16.7,30.06,West,261,0.0,2.0,20,0.00,,,0.00,0.0,meteohub,2013-03-28 06:57:00,